• In Czech Republic
  • List of Countries
  • For 7 days
  • Water Temperature
  • Satellite Maps
  • Weather Map
  • Weather Widgets
  • user-avatar
    Login

    Hourly Weather Almaty

    Today, 22 January, Monday

    Time Temperature Precipitation Wind Pressure Humidity
    00:00 -2°C° 0 mm 3 mps 686 mmHg 79%
    01:00 -2°C° 0 mm 2 mps 686 mmHg 78%
    02:00 -3°C° 0 mm 2 mps 686 mmHg 78%
    03:00 -3°C° 0 mm 2 mps 687 mmHg 76%
    04:00 -3°C° 0 mm 2 mps 687 mmHg 74%
    05:00 -4°C° 0 mm 2 mps 687 mmHg 80%
    06:00 -4°C° 0 mm 2 mps 687 mmHg 79%
    07:00 -4°C° 0 mm 2 mps 687 mmHg 78%
    08:00 -5°C° 0 mm 3 mps 687 mmHg 77%
    09:00 -3°C° 0 mm 2 mps 687 mmHg 78%
    10:00 -2°C° 0 mm 2 mps 688 mmHg 80%
    11:00 -1°C° 0 mm 2 mps 688 mmHg 81%
    12:00 -1°C° 0 mm 2 mps 688 mmHg 83%
    13:00 -1°C° 0 mm 2 mps 688 mmHg 84%
    14:00 -1°C° 0 mm 2 mps 688 mmHg 86%
    15:00 -2°C° 0 mm 2 mps 689 mmHg 87%
    16:00 -3°C° 0 mm 2 mps 689 mmHg 88%
    17:00 -4°C° 0 mm 2 mps 690 mmHg 91%
    18:00 -4°C° 0.1 mm 2 mps 690 mmHg 90%
    19:00 -4°C° 0.1 mm 2 mps 690 mmHg 89%
    20:00 -4°C° 0.1 mm 2 mps 691 mmHg 88%
    21:00 -5°C° 0.1 mm 2 mps 691 mmHg 87%
    22:00 -5°C° 0.1 mm 2 mps 691 mmHg 87%
    23:00 -5°C° 0.1 mm 2 mps 691 mmHg 87%

    Tomorrow, 23 January, Tuesday

    Time Temperature Precipitation Wind Pressure Humidity
    00:00 -6°C° 0.1 mm 2 mps 691 mmHg 87%
    01:00 -6°C° 0.1 mm 2 mps 691 mmHg 87%
    02:00 -6°C° 0.1 mm 2 mps 691 mmHg 87%
    03:00 -7°C° 0.1 mm 2 mps 691 mmHg 88%
    04:00 -7°C° 0.1 mm 2 mps 691 mmHg 88%
    05:00 -7°C° 0.1 mm 2 mps 691 mmHg 88%
    06:00 -8°C° 0.1 mm 2 mps 691 mmHg 89%
    07:00 -9°C° 0.1 mm 3 mps 692 mmHg 89%
    08:00 -9°C° 0.1 mm 3 mps 692 mmHg 90%
    09:00 -9°C° 0.1 mm 3 mps 692 mmHg 90%
    10:00 -8°C° 0.1 mm 3 mps 691 mmHg 91%
    11:00 -8°C° 0.1 mm 3 mps 691 mmHg 91%
    12:00 -8°C° 0.1 mm 3 mps 691 mmHg 92%
    13:00 -8°C° 0.1 mm 3 mps 691 mmHg 92%
    14:00 -7°C° 0.1 mm 3 mps 690 mmHg 93%
    15:00 -8°C° 0.1 mm 3 mps 690 mmHg 93%
    16:00 -9°C° 0.1 mm 3 mps 691 mmHg 94%
    17:00 -10°C° 0.1 mm 3 mps 691 mmHg 94%
    18:00 -12°C° 0.1 mm 3 mps 691 mmHg 93%
    19:00 -12°C° 0.1 mm 3 mps 691 mmHg 92%
    20:00 -13°C° 0.1 mm 3 mps 692 mmHg 91%
    21:00 -13°C° 0.1 mm 3 mps 691 mmHg 90%
    22:00 -13°C° 0.1 mm 3 mps 691 mmHg 89%
    23:00 -13°C° 0.1 mm 3 mps 691 mmHg 89%

    Day after tomorrow, 24 January, Wednesday

    Time Temperature Precipitation Wind Pressure Humidity
    00:00 -14°C° 0.1 mm 3 mps 691 mmHg 88%
    01:00 -14°C° 0.1 mm 3 mps 691 mmHg 88%
    02:00 -14°C° 0.1 mm 3 mps 691 mmHg 88%
    03:00 -15°C° 0 mm 3 mps 691 mmHg 87%
    04:00 -15°C° 0 mm 3 mps 691 mmHg 87%
    05:00 -15°C° 0 mm 3 mps 691 mmHg 87%
    06:00 -15°C° 0 mm 3 mps 691 mmHg 86%
    07:00 -16°C° 0 mm 3 mps 691 mmHg 85%
    08:00 -16°C° 0 mm 3 mps 691 mmHg 84%
    09:00 -15°C° 0 mm 3 mps 691 mmHg 84%
    10:00 -12°C° 0 mm 2 mps 691 mmHg 84%
    11:00 -10°C° 0 mm 2 mps 691 mmHg 83%
    12:00 -10°C° 0 mm 2 mps 691 mmHg 85%
    13:00 -10°C° 0 mm 2 mps 691 mmHg 86%
    14:00 -9°C° 0 mm 2 mps 690 mmHg 87%
    15:00 -12°C° 0 mm 2 mps 691 mmHg 89%
    16:00 -13°C° 0 mm 2 mps 691 mmHg 90%
    17:00 -15°C° 0 mm 3 mps 692 mmHg 91%
    18:00 -15°C° 0 mm 3 mps 692 mmHg 87%
    19:00 -16°C° 0 mm 3 mps 692 mmHg 82%
    20:00 -16°C° 0 mm 3 mps 693 mmHg 78%
    21:00 -16°C° 0 mm 3 mps 693 mmHg 75%
    22:00 -16°C° 0 mm 3 mps 693 mmHg 72%
    23:00 -16°C° 0 mm 3 mps 693 mmHg 69%

    25 January, Thursday

    Time Temperature Precipitation Wind Pressure Humidity
    00:00 -17°C° 0 mm 3 mps 693 mmHg 65%
    01:00 -17°C° 0 mm 3 mps 693 mmHg 60%
    02:00 -17°C° 0 mm 3 mps 692 mmHg 56%
    03:00 -17°C° 0 mm 3 mps 692 mmHg 54%
    04:00 -17°C° 0 mm 3 mps 692 mmHg 52%
    05:00 -17°C° 0 mm 3 mps 692 mmHg 51%
    06:00 -17°C° 0 mm 3 mps 692 mmHg 51%
    07:00 -17°C° 0 mm 3 mps 693 mmHg 51%
    08:00 -17°C° 0 mm 3 mps 693 mmHg 51%
    09:00 -16°C° 0 mm 3 mps 693 mmHg 55%
    10:00 -14°C° 0 mm 3 mps 692 mmHg 58%
    11:00 -10°C° 0 mm 2 mps 692 mmHg 62%
    12:00 -12°C° 0 mm 3 mps 692 mmHg 65%
    13:00 -10°C° 0 mm 3 mps 691 mmHg 67%
    14:00 -10°C° 0 mm 3 mps 691 mmHg 70%
    15:00 -13°C° 0 mm 3 mps 691 mmHg 68%
    16:00 -14°C° 0 mm 3 mps 692 mmHg 66%
    17:00 -16°C° 0 mm 3 mps 692 mmHg 64%
    18:00 -16°C° 0 mm 3 mps 692 mmHg 61%
    19:00 -16°C° 0 mm 3 mps 692 mmHg 58%
    20:00 -17°C° 0 mm 3 mps 693 mmHg 54%
    21:00 -17°C° 0 mm 3 mps 693 mmHg 55%
    22:00 -17°C° 0 mm 3 mps 692 mmHg 55%
    23:00 -17°C° 0 mm 3 mps 692 mmHg 56%

    26 January, Friday

    Time Temperature Precipitation Wind Pressure Humidity
    00:00 -17°C° 0 mm 3 mps 692 mmHg 56%
    01:00 -17°C° 0 mm 3 mps 692 mmHg 56%
    02:00 -18°C° 0 mm 3 mps 692 mmHg 57%
    03:00 -16°C° 0 mm 2 mps 692 mmHg 57%
    04:00 -16°C° 0 mm 2 mps 692 mmHg 57%
    05:00 -16°C° 0 mm 2 mps 692 mmHg 58%
    06:00 -16°C° 0 mm 2 mps 692 mmHg 59%
    07:00 -16°C° 0 mm 2 mps 692 mmHg 61%
    08:00 -16°C° 0 mm 2 mps 692 mmHg 62%
    09:00 -16°C° 0 mm 3 mps 692 mmHg 68%
    10:00 -14°C° 0 mm 3 mps 692 mmHg 73%
    11:00 -13°C° 0 mm 3 mps 691 mmHg 79%
    12:00 -13°C° 0 mm 3 mps 691 mmHg 81%
    13:00 -13°C° 0 mm 3 mps 691 mmHg 84%
    14:00 -12°C° 0 mm 3 mps 691 mmHg 86%
    15:00 -14°C° 0.1 mm 3 mps 691 mmHg 89%
    16:00 -15°C° 0.1 mm 3 mps 691 mmHg 91%
    17:00 -15°C° 0.1 mm 2 mps 691 mmHg 93%
    18:00 -15°C° 0.1 mm 2 mps 691 mmHg 93%
    19:00 -16°C° 0.1 mm 2 mps 692 mmHg 93%
    20:00 -16°C° 0.1 mm 2 mps 692 mmHg 92%
    21:00 -17°C° 0 mm 2 mps 692 mmHg 92%
    22:00 -17°C° 0 mm 2 mps 692 mmHg 92%
    23:00 -17°C° 0 mm 2 mps 692 mmHg 93%

    27 January, Saturday

    Time Temperature Precipitation Wind Pressure Humidity
    00:00 -18°C° 0 mm 2 mps 692 mmHg 92%
    01:00 -18°C° 0 mm 2 mps 692 mmHg 92%
    02:00 -18°C° 0 mm 2 mps 692 mmHg 92%
    03:00 -19°C° 0 mm 2 mps 692 mmHg 92%
    04:00 -19°C° 0 mm 2 mps 692 mmHg 92%
    05:00 -20°C° 0 mm 2 mps 692 mmHg 93%
    06:00 -20°C° 0 mm 2 mps 692 mmHg 92%
    07:00 -20°C° 0 mm 2 mps 693 mmHg 91%
    08:00 -20°C° 0 mm 2 mps 693 mmHg 90%
    09:00 -19°C° 0 mm 2 mps 693 mmHg 89%
    10:00 -17°C° 0 mm 2 mps 693 mmHg 89%
    11:00 -16°C° 0 mm 2 mps 693 mmHg 88%
    12:00 -15°C° 0 mm 2 mps 693 mmHg 89%
    13:00 -15°C° 0 mm 2 mps 693 mmHg 90%
    14:00 -15°C° 0 mm 2 mps 693 mmHg 91%
    15:00 -16°C° 0 mm 2 mps 693 mmHg 93%
    16:00 -17°C° 0 mm 2 mps 694 mmHg 94%
    17:00 -19°C° 0 mm 2 mps 694 mmHg 96%
    18:00 -19°C° 0 mm 2 mps 694 mmHg 93%
    19:00 -19°C° 0 mm 2 mps 695 mmHg 90%
    20:00 -19°C° 0 mm 2 mps 695 mmHg 87%
    21:00 -19°C° 0 mm 2 mps 695 mmHg 86%
    22:00 -19°C° 0 mm 2 mps 695 mmHg 85%
    23:00 -19°C° 0 mm 2 mps 695 mmHg 84%
    Show more